Time,TemperatureF,DewpointF,PressureIn,WindDirection,WindDirectionDegrees,WindSpeedMPH,WindSpeedGustMPH,Humidity,HourlyPrecipIn,Conditions,Clouds,dailyrainin,SolarRadiationWatts/m^2,SoftwareType,DateUTC
2013-02-23 01:00:00,32.0,20.0,29.63,SSW,200,10.0,-999.0,61,-99.99,,,-99.99,0.000000,,2013-02-23 08:00:00,
2013-02-23 01:52:00,32.0,20.0,29.63,SSW,200,10.0,-999.0,61,-99.99,,,-99.99,0.000000,,2013-02-23 08:52:00,
2013-02-23 02:00:00,32.0,20.0,29.62,SSW,201,11.0,-999.0,60,-99.99,,,-99.99,0.000000,,2013-02-23 09:00:00,
2013-02-23 02:52:00,32.0,20.0,29.62,SSW,201,11.0,-999.0,60,-99.99,,,-99.99,0.000000,,2013-02-23 09:52:00,
2013-02-23 03:00:00,33.0,20.0,29.62,SW,218,10.0,-999.0,59,-99.99,,,-99.99,0.000000,,2013-02-23 10:00:00,
2013-02-23 03:52:00,33.0,20.0,29.62,SW,218,10.0,-999.0,59,-99.99,,,-99.99,0.000000,,2013-02-23 10:52:00,
2013-02-23 04:00:00,33.0,21.0,29.60,SW,225,8.0,-999.0,61,-99.99,,,-99.99,0.000000,,2013-02-23 11:00:00,
2013-02-23 04:52:00,33.0,21.0,29.60,SW,225,8.0,-999.0,61,-99.99,,,-99.99,0.000000,,2013-02-23 11:52:00,
2013-02-23 05:00:00,33.0,22.0,29.61,SSW,209,10.0,-999.0,62,-99.99,,,-99.99,0.000000,,2013-02-23 12:00:00,
2013-02-23 05:52:00,33.0,22.0,29.61,SSW,209,10.0,-999.0,62,-99.99,,,-99.99,0.000000,,2013-02-23 12:52:00,
2013-02-23 06:00:00,34.0,21.0,29.62,SW,220,9.0,-999.0,58,-99.99,,,-99.99,0.000000,,2013-02-23 13:00:00,
2013-02-23 06:52:00,34.0,21.0,29.62,SW,220,9.0,-999.0,58,-99.99,,,-99.99,0.000000,,2013-02-23 13:52:00,
2013-02-23 07:00:00,32.0,21.0,29.63,SSW,206,3.0,-999.0,64,-99.99,,,-99.99,0.230000,,2013-02-23 14:00:00,
2013-02-23 07:52:00,32.0,21.0,29.63,SSW,206,3.0,-999.0,64,-99.99,,,-99.99,0.230000,,2013-02-23 14:52:00,
2013-02-23 08:00:00,34.0,22.0,29.63,SSE,153,2.0,-999.0,63,-99.99,,,-99.99,16.290001,,2013-02-23 15:00:00,
2013-02-23 08:52:00,34.0,22.0,29.63,SSE,153,2.0,-999.0,63,-99.99,,,-99.99,16.290001,,2013-02-23 15:52:00,
2013-02-23 09:00:00,37.0,23.0,29.66,SSE,153,4.0,-999.0,56,-99.99,,,-99.99,56.630001,,2013-02-23 16:00:00,
2013-02-23 09:52:00,37.0,23.0,29.66,SSE,153,4.0,-999.0,56,-99.99,,,-99.99,56.630001,,2013-02-23 16:52:00,
2013-02-23 10:00:00,41.0,24.0,29.67,WSW,241,8.0,-999.0,51,-99.99,,,-99.99,167.000000,,2013-02-23 17:00:00,
2013-02-23 10:52:00,41.0,24.0,29.67,WSW,241,8.0,-999.0,51,-99.99,,,-99.99,167.000000,,2013-02-23 17:52:00,
2013-02-23 11:00:00,40.0,26.0,29.68,West,267,9.0,-999.0,56,-99.99,,,-99.99,172.199997,,2013-02-23 18:00:00,
2013-02-23 11:52:00,40.0,26.0,29.68,West,267,9.0,-999.0,56,-99.99,,,-99.99,172.199997,,2013-02-23 18:52:00,
2013-02-23 12:00:00,42.0,26.0,29.70,WNW,289,8.0,-999.0,53,-99.99,,,-99.99,183.699997,,2013-02-23 19:00:00,
2013-02-23 12:52:00,42.0,26.0,29.70,WNW,289,8.0,-999.0,53,-99.99,,,-99.99,183.699997,,2013-02-23 19:52:00,
2013-02-23 13:00:00,42.0,27.0,29.71,WNW,302,8.0,-999.0,53,-99.99,,,-99.99,177.899994,,2013-02-23 20:00:00,
2013-02-23 13:52:00,42.0,27.0,29.71,WNW,302,8.0,-999.0,53,-99.99,,,-99.99,177.899994,,2013-02-23 20:52:00,
2013-02-23 14:00:00,39.0,17.0,29.73,NW,326,12.0,-999.0,40,-99.99,,,-99.99,148.300003,,2013-02-23 21:00:00,
2013-02-23 14:52:00,39.0,17.0,29.73,NW,326,12.0,-999.0,40,-99.99,,,-99.99,148.300003,,2013-02-23 21:52:00,
2013-02-23 15:00:00,37.0,24.0,29.75,NW,315,13.0,-999.0,59,-99.99,,,-99.99,141.800003,,2013-02-23 22:00:00,
2013-02-23 15:52:00,37.0,24.0,29.75,NW,315,13.0,-999.0,59,-99.99,,,-99.99,141.800003,,2013-02-23 22:52:00,
2013-02-23 17:00:00,35.0,24.0,29.79,West,281,4.0,-999.0,63,-99.99,,,-99.99,31.490000,,2013-02-24 00:00:00,
2013-02-23 17:52:00,35.0,24.0,29.79,West,281,4.0,-999.0,63,-99.99,,,-99.99,31.490000,,2013-02-24 00:52:00,
2013-02-23 18:00:00,34.0,25.0,29.82,West,260,2.0,-999.0,68,-99.99,,,-99.99,4.200000,,2013-02-24 01:00:00,
2013-02-23 18:52:00,34.0,25.0,29.82,West,260,2.0,-999.0,68,-99.99,,,-99.99,4.200000,,2013-02-24 01:52:00,
2013-02-23 19:00:00,33.0,22.0,29.84,WNW,293,3.0,-999.0,62,-99.99,,,-99.99,0.000000,,2013-02-24 02:00:00,
2013-02-23 19:52:00,33.0,22.0,29.84,WNW,293,3.0,-999.0,62,-99.99,,,-99.99,0.000000,,2013-02-24 02:52:00,
2013-02-23 20:00:00,34.0,22.0,29.87,West,278,4.0,-999.0,60,-99.99,,,-99.99,0.000000,,2013-02-24 03:00:00,
2013-02-23 20:52:00,34.0,22.0,29.87,West,278,4.0,-999.0,60,-99.99,,,-99.99,0.000000,,2013-02-24 03:52:00,
2013-02-23 21:00:00,32.0,23.0,29.90,NW,307,11.0,-999.0,69,-99.99,,,-99.99,0.000000,,2013-02-24 04:00:00,
2013-02-23 21:52:00,32.0,23.0,29.90,NW,307,11.0,-999.0,69,-99.99,,,-99.99,0.000000,,2013-02-24 04:52:00,
2013-02-23 22:00:00,31.0,24.0,29.91,NW,312,16.0,-999.0,75,-99.99,,,-99.99,0.000000,,2013-02-24 05:00:00,
2013-02-23 22:52:00,31.0,24.0,29.91,NW,312,16.0,-999.0,75,-99.99,,,-99.99,0.000000,,2013-02-24 05:52:00,
2013-02-23 23:00:00,29.0,22.0,29.94,NW,318,15.0,-999.0,74,-99.99,,,-99.99,0.000000,,2013-02-24 06:00:00,
2013-02-23 23:52:00,29.0,22.0,29.94,NW,318,15.0,-999.0,74,-99.99,,,-99.99,0.000000,,2013-02-24 06:52:00,